Regional Weather Roundup
Issued by NWS Raleigh/Durham, NC

Current Version | Previous Version | Text Only | Print | Product List | Glossary On
Versions: 1 2 3 4 5 6 7 8 9 10 11 12 13 14 15 16 17 18 19 20 21 22 23 24 25 26 27 28 29 30 31 32 33 34 35 36 37 38 39 40 41 42 43 44 45 46 47 48 49 50
000 ASUS42 KRAH 240210 RWRRAH NORTH CAROLINA WEATHER ROUNDUP NATIONAL WEATHER SERVICE RALEIGH NC 1000 PM EDT THU MAR 23 2017 NOTE: "FAIR" INDICATES FEW OR NO CLOUDS BELOW 12,000 FEET WITH NO SIGNIFICANT WEATHER AND/OR OBSTRUCTIONS TO VISIBILITY. NCZ001-053-055-056-065-067-240300- WESTERN NORTH CAROLINA CITY SKY/WX TMP DP RH WIND PRES REMARKS ASHEVILLE CLEAR 47 26 44 S5 30.45R JEFFERSON CLEAR 40 22 49 CALM 30.43S MORGANTON CLEAR 39 32 75 SE3 30.51R HICKORY CLEAR 48 22 35 CALM 30.46R RUTHERFORDTON CLEAR 51 25 36 CALM 30.47R MOUNT AIRY CLEAR 46 25 43 CALM 30.49R BOONE CLEAR 41 23 48 CALM 30.44R $$ NCZ021-022-025-041-071-084-088-240300- CENTRAL NORTH CAROLINA CITY SKY/WX TMP DP RH WIND PRES REMARKS CHARLOTTE PTCLDY 52 23 32 SE9 30.48R GREENSBORO CLEAR 45 23 42 S8 30.48R WINSTON-SALEM CLEAR 47 20 34 CALM 30.49R RALEIGH-DURHAM CLEAR 46 20 35 SE6 30.53R FORT BRAGG CLEAR 43 28 54 CALM 30.51R FAYETTEVILLE CLEAR 46 29 51 SE8 30.52R BURLINGTON CLEAR 47 23 38 SE5 30.49R LAURINBURG NOT AVBL $$ NCZ011-015-027-028-043-044-047-080-103-240300- NORTHEASTERN NORTH CAROLINA CITY SKY/WX TMP DP RH WIND PRES REMARKS ROCKY MT-WILSO CLEAR 40 27 59 CALM 30.56R GREENVILLE CLEAR 43 28 56 SE5 30.57R ELIZABETH CITY CLEAR 34 27 75 MISG 30.61R MANTEO CLEAR 34 27 73 E3 30.61S CAPE HATTERAS CLEAR 39 29 67 E3 30.59S $$ NCZ078-087-090-091-093-098-101-240300- SOUTHEASTERN NORTH CAROLINA CITY SKY/WX TMP DP RH WIND PRES REMARKS LUMBERTON CLEAR 47 34 60 SE8 30.52R GOLDSBORO CLEAR 43 27 53 SE7 30.54R KENANSVILLE CLEAR 41 32 70 CALM 30.55S NEW BERN CLEAR 42 35 76 E6 30.59R CHERRY POINT NOT AVBL BEAUFORT CLEAR 41 31 67 NE7 30.57F JACKSONVILLE CLEAR 44 32 62 E10 30.56S WILMINGTON CLEAR 46 32 58 E6 30.55S $$

USA.gov is the U.S. government's official web portal to all federal, state and local government web resources and services.